www.pogodaiklimat.ru

Погода и климат >> Архив погоды >> ОАЭ >> Эль-Айн


ПОГОДА в Эль-Айне

  • Прогноз погоды в Эль-Айне
  • Монитор погоды в Эль-Айне

АРХИВ ПОГОДЫ в Эль-Айне

Время (UTC), дата Ветер
(напр.,м/с)
 
Видим.   Явления Облачность Т
(С)
Тd
(С)
f
(%)
Тe
(С)
Тes
(С)
Комфортность P
(гПа)
Po
(гПа)
Тmin
(С)
Tmax
(С)
R
(мм)
R24
(мм)
S
(см)
18 12.06 В 3 10 км ясно +39.2 +1.1 9 +35 +35 очень
жарко
998.1 969.8 +47.3
21 12.06 В 4 10 км ясно +36.9 +0.8 10 +33 +33 жарко 998.0 969.4
00 13.06 СВ 3 10 км ясно +34.0 +1.0 12 +31 +31 жарко 997.7 968.9
03 13.06 ЮВ 1 8000 м пыль ясно +33.5 +2.8 14 +30 +33 жарко 999.3 970.4
06 13.06 Ю 7 9000 м пыль ясно +41.5 +11.2 17 +41 +46 опасность
перегрева
999.3 971.1 +32.4
09 13.06 ЮЗ 2 10 км 3/0
[Ci fib]
+44.6 +5.2 9 +42 +62 опасность
перегрева
997.9 970.0
12 13.06 СВ 2 10 км 3/0
[Ci sp]
+46.0 +4.6 8 +43 +52 опасность
перегрева
995.5 967.8
15 13.06 СЗ 8 8000 м пыль 3/0
[Ci sp]
+41.7 +16.9 24 +44 +44 опасность
перегрева
996.5 968.4
18 13.06 С 4 10 км ясно +38.2 +15.8 27 +40 +40 очень
душно
998.1 969.7 +46.7
21 13.06 СВ 4 10 км ясно +35.1 +13.1 27 +36 +36 очень
жарко
997.7 969.0
00 14.06 Ю 6 10 км ясно +34.4 +7.1 19 +33 +33 жарко 998.1 969.3
03 14.06 Ю 6 10 км 3/0
[Ci fib]
+34.9 +9.0 20 +33 +34 жарко 999.4 970.6
06 14.06 Ю 10 8000 м пыль ясно +40.4 +2.0 9 +37 +37 очень
жарко
999.5 971.2 +32.1
09 14.06 Ю 7 8000 м пыль 3/0
[Ci fib]
+44.2 +4.9 9 +41 +46 опасность
перегрева
997.9 969.9
12 14.06 ЮЗ 4 10 км 1/0
[Ci fib]
+44.8 +8.3 12 +43 +49 опасность
перегрева
995.7 967.9
15 14.06 СЗ 5 8000 м пыль 4/0
[Ci fib]
+41.7 +20.0 29 +47 +47 опасность
перегрева
996.5 968.4
18 14.06 С 3 10 км 3/0
[Ci fib]
+37.9 +19.3 34 +43 +43 опасность
перегрева
998.5 970.0 +45.7
21 14.06 СЗ 4 10 км 3/0
[Ci fib]
+32.9 +20.7 49 +40 +40 очень
душно
998.0 969.1
00 15.06 СВ 2 10 км 3/0
[Ci fib]
+31.2 +21.0 55 +39 +39 очень
душно
997.6 968.5
03 15.06 Ю 6 10 км 3/0
[Ci sp]
+32.9 +14.8 34 +35 +36 душно 999.6 970.6
06 15.06 Ю 7 10 км ясно +39.8 +12.4 20 +39 +44 очень
жарко
999.4 971.1 +30.6
09 15.06 ЮВ 5 10 км ясно +43.8 +14.0 18 +44 +57 опасность
перегрева
997.7 969.8
12 15.06 Ю 4 10 км ясно +45.3 +11.2 14 +44 +50 опасность
перегрева
996.2 968.4
15 15.06 СЗ 7 9000 м пыль ясно +42.4 +17.5 24 +45 +45 опасность
перегрева
996.7 968.7
18 15.06 СЗ 3 8000 м пыль ясно +38.1 +16.3 28 +40 +40 очень
душно
998.9 970.4 +45.8
21 15.06 С 3 10 км ясно +35.9 +13.2 26 +36 +36 очень
жарко
998.2 969.5
00 16.06 СВ 3 10 км 4/0
[Ci fib]
+34.2 +12.4 27 +34 +34 очень
жарко
997.6 968.8
03 16.06 СВ 4 8000 м пыль 8/0
[Cs]
+35.8 +17.9 35 +40 +41 очень
душно
999.0 970.3
06 16.06 В 3 8000 м пыль 6/0
[Ci fib]
+43.3 +13.6 18 +43 +55 опасность
перегрева
999.0 971.0 +33.4
09 16.06 С 6 10 км 5/0
[Ci fib]
+47.3 +3.7 7 +44 +52 опасность
перегрева
997.3 969.7
12 16.06 С 4 10 км 5/1 1350 м
[Cu hum Ci fib]
+46.9 +7.0 9 +44 +49 опасность
перегрева
995.3 967.7
15 16.06 СЗ 7 10 км 6/0
[Ci fib]
+41.9 +15.7 22 +43 +43 опасность
перегрева
997.2 969.1
18 16.06 С 4 10 км 3/0
[Ci fib]
+37.6 +17.0 30 +40 +40 очень
душно
998.9 970.4 +48.1
21 16.06 С 5 10 км 3/0
[Ci fib]
+34.3 +17.0 36 +38 +38 очень
душно
998.9 970.1
00 17.06 В 3 10 км 1/0
[Ci fib]
+32.8 +10.0 25 +32 +32 жарко 998.7 969.8
03 17.06 нст 1 10 км 4/0
[Ci fib]
+33.7 +12.5 28 +34 +37 очень
жарко
1000.4 971.5
06 17.06 Ю 4 8000 м пыль 3/0
[Ci sp]
+40.5 +15.2 23 +42 +52 опасность
перегрева
1000.3 972.0 +31.9
09 17.06 ЮЗ 3 10 км 3/0
[Ci sp]
+46.2 +6.5 9 +43 +62 опасность
перегрева
998.1 970.3
12 17.06 СЗ 5 10 км 3/0
[Ci fib]
+47.6 +5.8 8 +45 +49 опасность
перегрева
995.6 968.0
15 17.06 СЗ 5 10 км 5/0
[Ac trans Ci fib]
+42.3 +9.9 15 +41 +41 опасность
перегрева
997.4 969.3
18 17.06 СЗ 3 10 км 4/0
[Ci fib]
+37.0 +13.5 25 +37 +37 очень
жарко
998.9 970.3 +48.7
21 17.06 С 3 10 км ясно +32.1 +21.5 54 +40 +40 очень
душно
998.6 969.6
00 18.06 В 2 10 км ясно +30.8 +17.8 46 +35 +35 очень
душно
997.7 968.6
03 18.06 З 2 10 км ясно +29.5 +19.7 56 +36 +38 очень
душно
999.3 970.0
06 18.06 Ю 4 7000 м мгла 3/0
[Ci fib]
+35.7 +21.1 43 +43 +54 опасность
перегрева
999.0 970.3 +27.9
09 18.06 Ю 4 8000 м пыль 3/0
[Ci fib]
+42.7 +14.0 19 +43 +58 опасность
перегрева
996.8 968.8
12 18.06 З 5 9000 м пыль 3/0
[Ci fib]
+45.3 +12.3 15 +45 +50 опасность
перегрева
995.0 967.3
15 18.06 СЗ 8 8000 м пыль 4/0
[Ci fib]
+40.3 +19.3 30 +45 +45 опасность
перегрева
996.0 967.8
18 18.06 СЗ 3 10 км 4/0
[Ci fib]
+35.2 +21.1 44 +42 +42 опасность
перегрева
998.0 969.3 +46.1
21 18.06 З 2 8000 м мгла 4/0
[Ci fib]
+31.6 +23.6 63 +43 +43 опасность
перегрева
997.6 968.6
00 19.06 ЮВ 2 8000 м мгла 4/0
[Ci fib]
+29.7 +22.1 64 +39 +39 очень
душно
997.5 968.3
03 19.06 Ю 3 9000 м мгла ясно +29.6 +22.5 66 +39 +41 очень
душно
998.0 968.8
06 19.06 З 4 9000 м пыль ясно +36.0 +18.5 36 +40 +51 опасность
солнечного
удара
997.4 968.8 +28.6
09 19.06 З 6 8000 м пыль ясно +42.3 +10.9 16 +41 +49 опасность
перегрева
995.4 967.4
12 19.06 З 6 8000 м пыль ясно +41.6 +12.2 18 +41 +45 опасность
перегрева
994.0 966.0

 

Местоположение метеостанции Эль-Айн (ОАЭ): широта 24.27 долгота 55.60 высота над уровнем моря 262 м.

В архиве по умолчанию представлена погода в Эль-Айне за последнюю неделю. Архивные данные за месяц целиком и за предыдущие месяцы, начиная с января 2011 года, Вы можете получить, выбрав интересующий диапазон дат из раскрывающегося списка и нажав кнопку "Ввод!".


*Определитесь, кто Вы:
робот инопланетянин человек

Внимание! Время в таблицах - всемирное. Для получения местного времени необходимо прибавить поправку, которая равна 4 ч.

Смотрите также архив погоды в соседних городах и на ближайших метеорологических станциях:

Погода в Эль-Бурайми (Оман) (19 км)
Погода в Кумейре (Оман) (72 км)
Погода в Аль-Мактум аэропорту (ОАЭ) (83 км)
Погода в Абу-Даби (ОАЭ) (98 км)
Погода в Сухаре (Оман) (107 км)
Погода в Дубае (ОАЭ) (112 км)
Погода в Абу-Даби Батин аэропорту (ОАЭ) (117 км)
Погода в Фуджейре (ОАЭ) (118 км)
Погода в Шардже (ОАЭ) (118 км)
Погода в Ибри (Оман) (133 км)

Пояснения к столбцам:

Ветер - указаны скорость ветра в м/с - средняя за 10 мин, порывы в срок и между сроками (в фигурных скобках) и направление, откуда дует ветер: С - северный, СВ - северо-восточный, В - восточный, ЮВ - юго-восточный, Ю - южный, ЮЗ - юго-западный, З - западный, СЗ - северо-западный.
Видимость - горизонтальная дальность видимости в метрах или километрах. При видимости от 1 до 10 км при отсутствии осадков обычно наблюдается дымка, при ухудшении видимости до 1 км и менее - туман. В сухую погоду видимость может ухудшаться дымом, пылью или мглою.
Явления - указаны атмосферные явления, наблюдавшиеся в срок или в последний час перед сроком; фигурными скобками обозначены явления, наблюдавшиеся между сроками (за 1-3 часа до срока); квадратными скобками обозначены град или гололедные отложения с указанием их диаметра в мм.
Облачность - указаны через наклонную черту общая и нижняя облачность в баллах и высота нижней границы облаков в метрах; квадратными скобками обозначены формы облаков: Ci - перистые, Cs - перисто-слоистые, Cc - перисто-кучевые, Ac - высококучевые, As - высокослоистые, Sc - слоисто-кучевые, Ns - слоисто-дождевые, Cu - кучевые, Cb - кучево-дождевые. Подробнее классификацию облаков см. в Атласе облаков (PDF).
T - Температура воздуха - температура, измеренная на высоте 2 м над землей.
Td - Температура точки росы - температура, при понижении до которой содержащийся в воздухе водяной пар достигнет насыщения.
f - Относительная влажность воздуха - влажноcть воздуха, измеренная на высоте 2 м над землей.
Te - Эффективная температура - температура, которую ощущает одетый по сезону человек в тени. Характеристика душности погоды. При расчете учитывается влияние влажности воздуха и скорости ветра на теплоощущения человека.
Tes - Эффективная температура на солнце - температура, которую ощущает человек, с поправкой на солнечный нагрев. Характеристика знойности погоды. Зависит от высоты солнца над горизонтом, облачности и скорости ветра. Ночью, в пасмурную погоду, а также при ветре 12 м/с и более поправка равна нулю.
P - Атмосферное давление - приведенное к уровню моря атмосферное давление.
Po - Атмосферное давление - измеренное на уровне метеостанции атмосферное давление.
Tmin - Минимальная температура - минимум температуры воздуха на высоте 2 м над землей.
Tmax - Максимальная температура - максимум температуры воздуха на высоте 2 м над землей.
R - Количество осадков - Количество выпавших осадков за период времени, мм. При наведении курсора мыши на число - период времени, за который выпало указанное количество осадков.
R24 - Количество осадков - Количество выпавших осадков за 24 часа, мм.
S - Снежный покров - Высота снежного покрова, см. При наведении курсора мыши на число - состояние снежного покрова и степень покрытия местности в баллах.